Weather History for Stuttgart, AR

Change the Weather History Date:

Thursday, March 7, 2013

  Actual Average Record
Temperature  
Mean Temperature 45 °F -  
Max Temperature 53 °F 55 °F 75 °F (2009)
Min Temperature 37 °F 39 °F 30 °F (2014)
Degree Days  
Heating Degree Days 20    
Moisture  
Dew Point 31 °F    
Average Humidity 59    
Maximum Humidity 75    
Minimum Humidity 41    
Precipitation  
Precipitation 0.00 in - - ()
Sea Level Pressure  
Sea Level Pressure 30.34 in    
Wind  
Wind Speed 6 mph (East)    
Max Wind Speed 9 mph    
Max Gust Speed -    
Visibility 10 miles    
Events      
Averages and records for this station are not official NWS values.
T = Trace of Precipitation, MM = Missing Value Source: NWS Daily Summary

Daily Weather History Graph

Daily Weather History Graph

Search for Another Location

Airport:

Trip Planner

Search our weather history database for the weather conditions in past years. The results will help you decide how hot, cold, wet, or windy it might be!

Date:

Astronomy

Mar. 07, 2013 Rise Set
Actual Time 6:27 AM CST 6:07 PM CST
Civil Twilight 6:02 AM CST 6:32 PM CST
Nautical Twilight 5:33 AM CST 7:01 PM CST
Astronomical Twilight 5:03 AM CST 7:31 PM CST
Moon 3:18 AM CST (3/7) 2:04 PM CST (3/7)
Length of Visible Light 12h 30m
Length of Day
11h 40m
Waning Crescent, 20% of the Moon is Illuminated
Mar 7
Waning Crescent
Mar 11
New
Mar 19
First Quarter
Mar 27
Full
Apr 2
Last Quarter

Hourly Weather History & Observations

Time (CST) Temp. Windchill Dew Point Humidity Pressure Visibility Wind Dir Wind Speed Gust Speed Precip Events Conditions
12:15 AM 39.2 °F 35.0 °F 30.2 °F 70% 30.31 in 10.0 mi ESE 5.8 mph - N/A   Clear
12:35 AM 39.2 °F 35.0 °F 28.4 °F 65% 30.32 in 10.0 mi ESE 5.8 mph - N/A   Clear
12:55 AM 39.2 °F 37.0 °F 28.4 °F 65% 30.33 in 10.0 mi ESE 3.5 mph - N/A   Clear
1:15 AM 39.2 °F 37.0 °F 30.2 °F 70% 30.34 in 10.0 mi SE 3.5 mph - N/A   Clear
1:35 AM 39.2 °F 35.0 °F 30.2 °F 70% 30.33 in 10.0 mi ESE 5.8 mph - N/A   Clear
1:55 AM 39.2 °F 35.0 °F 28.4 °F 65% 30.34 in 10.0 mi ESE 5.8 mph - N/A   Clear
2:15 AM 39.2 °F 35.9 °F 30.2 °F 70% 30.33 in 10.0 mi SE 4.6 mph - N/A   Clear
2:35 AM 39.2 °F 35.0 °F 30.2 °F 70% 30.32 in 10.0 mi SE 5.8 mph - N/A   Clear
2:55 AM 39.2 °F 35.9 °F 30.2 °F 70% 30.32 in 10.0 mi ESE 4.6 mph - N/A   Clear
3:15 AM 39.2 °F 35.9 °F 30.2 °F 70% 30.32 in 10.0 mi ESE 4.6 mph - N/A   Clear
3:35 AM 39.2 °F 35.9 °F 30.2 °F 70% 30.32 in 10.0 mi East 4.6 mph - N/A   Clear
3:55 AM 39.2 °F 35.9 °F 28.4 °F 65% 30.32 in 10.0 mi East 4.6 mph - N/A   Clear
4:15 AM 39.2 °F 35.0 °F 28.4 °F 65% 30.33 in 10.0 mi East 5.8 mph - N/A   Clear
4:35 AM 39.2 °F 35.9 °F 30.2 °F 70% 30.34 in 10.0 mi East 4.6 mph - N/A   Clear
4:55 AM 39.2 °F 35.0 °F 28.4 °F 65% 30.35 in 10.0 mi East 5.8 mph - N/A   Clear
5:15 AM 37.4 °F 32.1 °F 30.2 °F 75% 30.35 in 10.0 mi East 6.9 mph - N/A   Clear
5:35 AM 37.4 °F 31.4 °F 30.2 °F 75% 30.36 in 10.0 mi East 8.1 mph - N/A   Clear
5:55 AM 37.4 °F 32.1 °F 30.2 °F 75% 30.36 in 10.0 mi East 6.9 mph - N/A   Clear
6:15 AM 37.4 °F 32.8 °F 28.4 °F 70% 30.37 in 10.0 mi East 5.8 mph - N/A   Clear
6:35 AM 37.4 °F 32.8 °F 28.4 °F 70% 30.37 in 10.0 mi East 5.8 mph - N/A   Clear
6:55 AM 37.4 °F 32.8 °F 30.2 °F 75% 30.39 in 10.0 mi East 5.8 mph - N/A   Clear
7:15 AM 37.4 °F 32.1 °F 28.4 °F 70% 30.39 in 10.0 mi East 6.9 mph - N/A   Clear
7:35 AM 37.4 °F 32.8 °F 30.2 °F 75% 30.40 in 10.0 mi ESE 5.8 mph - N/A   Clear
7:55 AM 39.2 °F 33.6 °F 28.4 °F 65% 30.40 in 10.0 mi ESE 8.1 mph - N/A   Clear
8:15 AM 39.2 °F 33.0 °F 28.4 °F 65% 30.40 in 10.0 mi SE 9.2 mph - N/A   Clear
8:35 AM 39.2 °F 33.0 °F 28.4 °F 65% 30.40 in 10.0 mi ESE 9.2 mph - N/A   Clear
8:55 AM 39.2 °F 33.6 °F 28.4 °F 65% 30.39 in 10.0 mi SE 8.1 mph - N/A   Clear
9:15 AM 41.0 °F 35.8 °F 28.4 °F 61% 30.40 in 10.0 mi ESE 8.1 mph - N/A   Clear
9:35 AM 41.0 °F 35.8 °F 28.4 °F 61% 30.40 in 10.0 mi ESE 8.1 mph - N/A   Clear
9:55 AM 44.6 °F 40.7 °F 30.2 °F 57% 30.41 in 10.0 mi ESE 6.9 mph - N/A   Clear
10:15 AM 44.6 °F 40.7 °F 28.4 °F 53% 30.41 in 10.0 mi ESE 6.9 mph - N/A   Clear
10:35 AM 44.6 °F 40.7 °F 30.2 °F 57% 30.41 in 10.0 mi SSE 6.9 mph - N/A   Clear
10:55 AM 46.4 °F 44.3 °F 30.2 °F 53% 30.41 in 10.0 mi SE 4.6 mph - N/A   Clear
11:15 AM 46.4 °F 42.9 °F 28.4 °F 50% 30.41 in 10.0 mi SE 6.9 mph - N/A   Clear
11:35 AM 46.4 °F 43.5 °F 28.4 °F 50% 30.41 in 10.0 mi SE 5.8 mph - N/A   Clear
11:55 AM 48.2 °F - 30.2 °F 50% 30.40 in 10.0 mi ENE 5.8 mph - N/A   Clear
12:15 PM 48.2 °F - 30.2 °F 50% 30.39 in 9.0 mi East 4.6 mph - N/A   Clear
12:35 PM 48.2 °F - 30.2 °F 50% 30.38 in 9.0 mi ESE 4.6 mph - N/A   Clear
12:55 PM 50.0 °F - 30.2 °F 47% 30.37 in 4.0 mi ENE 5.8 mph - N/A   Clear
1:15 PM 50.0 °F - 30.2 °F 47% 30.36 in 9.0 mi NE 4.6 mph - N/A   Clear
1:35 PM 51.8 °F - 32.0 °F 47% 30.34 in 10.0 mi North - - N/A   Clear
1:55 PM 51.8 °F - 32.0 °F 47% 30.34 in 10.0 mi North - - N/A   Clear
2:15 PM 51.8 °F - 32.0 °F 47% 30.33 in 10.0 mi North - - N/A   Clear
2:35 PM 53.6 °F - 32.0 °F 44% 30.33 in 10.0 mi North - - N/A   Clear
2:55 PM 53.6 °F - 30.2 °F 41% 30.32 in 10.0 mi North - - N/A   Clear
3:15 PM 53.6 °F - 32.0 °F 44% 30.32 in 10.0 mi North - - N/A   Clear
3:35 PM 53.6 °F - 32.0 °F 44% 30.32 in 10.0 mi North - - N/A   Clear
3:55 PM 53.6 °F - 30.2 °F 41% 30.31 in 10.0 mi North - - N/A   Clear
4:15 PM 53.6 °F - 30.2 °F 41% 30.30 in 10.0 mi North - - N/A   Clear
4:35 PM 53.6 °F - 30.2 °F 41% 30.29 in 10.0 mi North - - N/A   Clear
4:55 PM 53.6 °F - 30.2 °F 41% 30.29 in 10.0 mi North - - N/A   Clear
5:15 PM 53.6 °F - 30.2 °F 41% 30.29 in 10.0 mi North - - N/A   Clear
5:35 PM 53.6 °F - 33.8 °F 47% 30.29 in 10.0 mi North - - N/A   Clear
5:55 PM 51.8 °F - 33.8 °F 50% 30.29 in 10.0 mi North - - N/A   Clear
6:15 PM 51.8 °F - 33.8 °F 50% 30.29 in 10.0 mi ENE 8.1 mph - N/A   Clear
6:35 PM 50.0 °F - 33.8 °F 54% 30.29 in 10.0 mi ENE 8.1 mph - N/A   Clear
6:55 PM 48.2 °F - 33.8 °F 58% 30.29 in 10.0 mi ENE 6.9 mph - N/A   Clear
7:15 PM 48.2 °F - 33.8 °F 58% 30.29 in 10.0 mi East 6.9 mph - N/A   Clear
7:35 PM 48.2 °F - 33.8 °F 58% 30.30 in 10.0 mi East 5.8 mph - N/A   Clear
7:55 PM 48.2 °F - 32.0 °F 54% 30.29 in 10.0 mi ENE 8.1 mph - N/A   Clear
8:15 PM 46.4 °F 42.9 °F 33.8 °F 62% 30.29 in 10.0 mi ENE 6.9 mph - N/A   Clear
9:15 PM 46.4 °F 41.9 °F 32.0 °F 57% 30.29 in 10.0 mi East 9.2 mph - N/A   Clear
9:35 PM 46.4 °F 42.4 °F 30.2 °F 53% 30.29 in 10.0 mi East 8.1 mph - N/A   Clear
9:55 PM 44.6 °F 41.4 °F 32.0 °F 61% 30.30 in 10.0 mi East 5.8 mph - N/A   Clear
10:15 PM 44.6 °F 40.2 °F 32.0 °F 61% 30.30 in 10.0 mi East 8.1 mph - N/A   Clear
10:35 PM 44.6 °F 40.2 °F 32.0 °F 61% 30.30 in 10.0 mi East 8.1 mph - N/A   Clear
10:55 PM 42.8 °F 38.6 °F 32.0 °F 66% 30.30 in 10.0 mi East 6.9 mph - N/A   Clear
11:15 PM 42.8 °F 38.0 °F 32.0 °F 66% 30.30 in 10.0 mi East 8.1 mph - N/A   Clear
11:35 PM 42.8 °F 40.1 °F 32.0 °F 66% 30.30 in 10.0 mi East 4.6 mph - N/A   Clear
11:55 PM 42.8 °F 40.1 °F 32.0 °F 66% 30.30 in 8.0 mi East 4.6 mph - N/A   Clear